KT4FD Weather Reports


Display with metric or nautical units.
time (UTC)temp
F
wind
direction
speed
MPH
gust
MPH
rain 1hr
in
rain 24hr
in
rain mn
in
humidity
%
barometer
mb
20260504031003 49 222 0.0 0.0 0.00 0.00 0.00 73 1021.1
20260504030003 49 222 0.0 0.0 0.00 0.00 0.00 73 1021.2
20260504025003 49 222 0.0 0.0 0.00 0.00 0.00 73 1021.1
20260504024002 49 222 0.0 0.0 0.00 0.00 0.00 72 1021.1
20260504023003 50 222 0.0 0.0 0.00 0.00 0.00 72 1021.0
20260504022003 50 222 0.0 0.0 0.00 0.00 0.00 71 1020.8
20260504021003 51 222 0.0 0.0 0.00 0.00 0.00 68 1020.7
20260503210003 67 221 8.0 14.0 0.00 0.00 0.00 43 1019.9
20260503195003 67 243 6.0 12.0 0.00 0.00 0.00 39 1020.9
20260503194003 67 293 7.0 12.0 0.00 0.00 0.00 44 1021.0
20260503193003 67 223 6.0 12.0 0.00 0.00 0.00 42 1021.0
20260503192003 67 257 7.0 12.0 0.00 0.00 0.00 42 1021.2
20260503191003 66 229 6.0 12.0 0.00 0.00 0.00 44 1021.3
20260503190002 66 223 7.0 12.0 0.00 0.00 0.00 41 1021.5
20260503185003 66 209 6.0 12.0 0.00 0.00 0.00 40 1021.6
20260503184002 65 273 6.0 14.0 0.00 0.00 0.00 40 1021.6
20260503183003 65 269 5.0 10.0 0.00 0.00 0.00 39 1021.7
20260503182003 66 234 6.0 12.0 0.00 0.00 0.00 40 1021.9
20260503181004 65 209 7.0 13.0 0.00 0.00 0.00 42 1021.8
20260503180003 65 290 5.0 12.0 0.00 0.00 0.00 46 1021.8
20260503175003 64 332 5.0 17.0 0.00 0.00 0.00 47 1021.9
20260503151003 57 208 3.0 9.0 0.00 0.00 0.00 58 1023.2